Starlink 11207

operational
NORAD ID: 60933 Int'l Des: 2024-155 Owner: SPXS Country: US Constellation: starlink
LEOCIRCULAR

About Starlink 11207

Description loading...

Live Position

Loading 3D Globe...

Upcoming Passes

Altitude History

Altitude vs Time

uPlot chart will show altitude changes over time

Two-Line Element Set

1 60933U 24155K 25351.28678681 -.00000445 00000-0 11893-5 0 9991
2 60933 53.1590 27.2048 0001199 92.0016 268.1139 15.69708101 75467
Epoch: Dec 17, 2025 • Age: 8 hours

Current Status

Altitude 364.9 km
Velocity 7.70 km/s
Sub-Earth Point 50.50°N, 141.17°E
Launch Date Aug 31, 2024
Age 1.2 years
Type internet

Technical Details

Classification Payload
Mass 960.00 kg
Dry Mass 910.00 kg
Total Mass 960.00 kg
Length 0.30 m
Diameter 4.10 m
Span 29.00 m
Shape Box + pan
Manufacturer SPXS
Bus Type Starlink V2MD
Phase Status In Orbit
Owner/State SPXS/US

Large Constellations

Loading constellations...